Date String (YYYY-MM-DD hh:mm:ss) UTC,Instrument flags,absolute air pressure of the measurement (hPa),sample flow rate (lpm),inlet stack bypass flow (lpm),air temperature of the measurement (°C),ambient temperature measured by the external sensor (°C),aerosol sample conditioner tube jacket temperature (°C),OPC LED temperature (°C),internal box temperature (°C),relative humidity of the measurement (%),span deviation,mass concentration of particles derived from Lorenz-Mie calculation of OPC scattering (μg/m³),mass concentration of particles derived from Lorenz-Mie calculation of OPC scattering (μg/m³),mass concentration of particles derived from Lorenz-Mie calculation of OPC scattering (μg/m³)
DateTimeUTC,F1_M11,P_M11,Q1_M11,Q2_M11,T1_M11,T2_M11,T3_M11,T4_M11,T5_M11,U1_M11,ZSPAN_M11,X0_M11,X2_M11,X1_M11
2024-02-22 01:00:00,SystemResetWarning,0822.2,5.01,000.00,025.9,024.9,000.0,034.3,027.7,07.5,0000.0,0004.02,0001.50,0000.68
2024-02-22 01:01:00,SystemResetWarning,0822.2,5.00,000.00,025.9,024.9,000.0,034.3,027.7,07.6,0000.0,0003.98,0001.49,0000.68
2024-02-22 01:02:00,SystemResetWarning,0822.2,5.00,000.00,025.9,024.9,000.0,034.3,027.6,07.7,0000.0,0003.70,0001.45,0000.67
2024-02-22 01:03:00,SystemResetWarning,0822.4,4.99,000.00,025.9,024.9,000.0,034.3,027.6,07.4,0000.0,0003.57,0001.39,0000.67
2024-02-22 01:04:00,SystemResetWarning,0822.4,5.00,000.00,025.9,024.9,000.0,034.2,027.6,07.0,0000.0,0003.54,0001.38,0000.67
2024-02-22 01:05:00,SystemResetWarning,0822.4,4.99,000.00,025.9,024.9,000.0,034.2,027.6,06.9,0000.0,0002.78,0001.37,0000.68
2024-02-22 01:06:00,SystemResetWarning,0822.4,5.00,000.00,025.9,024.9,000.0,034.2,027.6,07.2,0000.0,0002.58,0001.36,0000.68
2024-02-22 01:07:00,SystemResetWarning,0822.4,5.00,000.00,025.8,024.9,000.0,034.2,027.6,07.5,0000.0,0002.34,0001.28,0000.68
2024-02-22 01:08:00,SystemResetWarning,0822.4,5.00,000.00,025.8,024.9,000.0,034.2,027.6,07.5,0000.0,0002.48,0001.30,0000.68
2024-02-22 01:09:00,SystemResetWarning,0822.4,5.01,000.00,025.8,024.9,000.0,034.2,027.6,07.4,0000.0,0002.65,0001.32,0000.68
2024-02-22 01:10:00,SystemResetWarning,0822.6,5.00,000.00,025.8,024.9,000.0,034.2,027.6,07.4,0000.0,0002.62,0001.28,0000.68
2024-02-22 01:11:00,SystemResetWarning,0822.9,5.00,000.00,025.8,024.9,000.0,034.2,027.6,07.4,0000.0,0002.81,0001.30,0000.69
2024-02-22 01:12:00,SystemResetWarning,0822.5,5.00,000.00,025.8,024.8,000.0,034.2,027.6,07.4,0000.0,0002.94,0001.34,0000.70
2024-02-22 01:13:00,SystemResetWarning,0822.9,5.00,000.00,025.8,024.8,000.0,034.2,027.6,07.4,0000.0,0003.16,0001.37,0000.71
2024-02-22 01:14:00,SystemResetWarning,0822.7,4.99,000.00,025.8,024.8,000.0,034.2,027.6,07.7,0000.0,0003.27,0001.43,0000.71
2024-02-22 01:15:00,SystemResetWarning,0823.0,4.99,000.00,025.8,024.8,000.0,034.2,027.6,07.7,0000.0,0003.67,0001.50,0000.70
2024-02-22 01:16:00,SystemResetWarning,0822.7,5.01,000.00,025.8,024.8,000.0,034.1,027.5,07.8,0000.0,0003.67,0001.44,0000.69
2024-02-22 01:17:00,SystemResetWarning,0822.7,5.00,000.00,025.7,024.8,000.0,034.1,027.5,07.9,0000.0,0003.87,0001.39,0000.69
2024-02-22 01:18:00,SystemResetWarning,0822.8,5.00,000.00,025.7,024.8,000.0,034.1,027.5,07.6,0000.0,0004.12,0001.40,0000.69
2024-02-22 01:19:00,SystemResetWarning,0822.6,5.00,000.00,025.7,024.7,000.0,034.1,027.4,07.8,0000.0,0004.16,0001.38,0000.68
2024-02-22 01:20:00,SystemResetWarning,0822.7,5.00,000.00,025.7,024.7,000.0,034.1,027.4,06.9,0000.0,0005.06,0001.37,0000.68
2024-02-22 01:21:00,SystemResetWarning,0822.9,5.00,000.00,025.7,024.6,000.0,034.1,027.4,06.8,0000.0,0005.47,0001.36,0000.68
2024-02-22 01:22:00,SystemResetWarning,0822.9,5.00,000.00,025.7,024.6,000.0,034.1,027.4,07.3,0000.0,0005.14,0001.28,0000.67
2024-02-22 01:23:00,SystemResetWarning,0823.2,5.00,000.00,025.7,024.7,000.0,034.1,027.4,07.7,0000.0,0005.73,0001.29,0000.66
2024-02-22 01:24:00,SystemResetWarning,0823.3,5.00,000.00,025.7,024.7,000.0,034.1,027.4,08.0,0000.0,0006.29,0001.34,0000.67
2024-02-22 01:25:00,SystemResetWarning,0823.4,5.00,000.00,025.7,024.7,000.0,034.1,027.4,08.1,0000.0,0006.79,0001.36,0000.68
2024-02-22 01:26:00,SystemResetWarning,0823.4,5.00,000.00,025.7,024.7,000.0,034.1,027.4,08.2,0000.0,0006.73,0001.35,0000.69
2024-02-22 01:27:00,SystemResetWarning,0823.4,5.00,000.00,025.7,024.8,000.0,034.1,027.4,08.9,0000.0,0006.92,0001.38,0000.70
2024-02-22 01:28:00,SystemResetWarning,0823.3,5.00,000.00,025.7,024.8,000.0,034.1,027.4,09.7,0000.0,0006.61,0001.41,0000.71
2024-02-22 01:29:00,SystemResetWarning,0823.3,4.99,000.00,025.7,024.8,000.0,034.1,027.4,12.3,0000.0,0006.52,0001.42,0000.71
2024-02-22 01:30:00,SystemResetWarning,0823.2,4.99,000.00,025.6,024.8,000.0,034.1,027.5,13.2,0000.0,0006.46,0001.41,0000.71
2024-02-22 01:31:00,SystemResetWarning,0823.2,5.01,000.00,025.7,024.8,000.0,034.1,027.5,13.6,0000.0,0005.39,0001.37,0000.70
2024-02-22 01:32:00,SystemResetWarning,0823.3,5.01,000.00,025.7,024.8,000.0,034.1,027.5,13.8,0000.0,0004.93,0001.36,0000.69
2024-02-22 01:33:00,SystemResetWarning,0823.4,5.01,000.00,025.7,024.9,000.0,034.1,027.5,14.0,0000.0,0005.04,0001.39,0000.70
2024-02-22 01:34:00,SystemResetWarning,0823.4,4.99,000.00,025.7,024.8,000.0,034.1,027.5,14.1,0000.0,0004.50,0001.38,0000.71
2024-02-22 01:35:00,SystemResetWarning,0823.4,4.98,000.00,025.7,024.8,000.0,034.1,027.5,14.1,0000.0,0003.99,0001.36,0000.72
2024-02-22 01:36:00,SystemResetWarning,0823.4,4.99,000.00,025.7,024.9,000.0,034.1,027.5,14.2,0000.0,0004.58,0001.34,0000.72
2024-02-22 01:37:00,SystemResetWarning,0823.3,5.00,000.00,025.7,024.8,000.0,034.1,027.5,14.2,0000.0,0004.40,0001.36,0000.73
2024-02-22 01:38:00,SystemResetWarning,0823.3,5.01,000.00,025.7,024.8,000.0,034.1,027.5,14.3,0000.0,0004.56,0001.46,0000.78
2024-02-22 01:39:00,SystemResetWarning,0823.3,5.00,000.00,025.7,024.9,000.0,034.1,027.5,14.1,0000.0,0005.40,0001.62,0000.83
2024-02-22 01:40:00,SystemResetWarning,0823.3,5.00,000.00,025.6,024.9,000.0,034.1,027.5,13.6,0000.0,0005.84,0001.80,0000.90
2024-02-22 01:41:00,SystemResetWarning,0823.3,4.99,000.00,025.7,024.9,000.0,034.1,027.5,13.3,0000.0,0006.04,0001.93,0000.98
2024-02-22 01:42:00,SystemResetWarning,0823.3,4.99,000.00,025.7,024.9,000.0,034.1,027.5,13.8,0000.0,0007.00,0002.07,0001.07
2024-02-22 01:43:00,SystemResetWarning,0823.4,5.00,000.00,025.7,024.9,000.0,034.1,027.5,13.7,0000.0,0007.40,0002.23,0001.14
2024-02-22 01:44:00,SystemResetWarning,0823.4,5.00,000.00,025.7,024.9,000.0,034.1,027.5,14.1,0000.0,0007.51,0002.33,0001.20
2024-02-22 01:45:00,SystemResetWarning,0823.4,5.00,000.00,025.7,024.9,000.0,034.1,027.5,13.9,0000.0,0008.27,0002.49,0001.26
2024-02-22 01:46:00,SystemResetWarning,0823.4,5.01,000.00,025.7,024.9,000.0,034.1,027.5,13.8,0000.0,0008.78,0002.57,0001.30
2024-02-22 01:47:00,SystemResetWarning,0823.4,5.01,000.00,025.7,024.9,000.0,034.1,027.5,13.8,0000.0,0008.77,0002.64,0001.36
2024-02-22 01:48:00,SystemResetWarning,0823.5,4.99,000.00,025.7,024.9,000.0,034.1,027.5,13.8,0000.0,0009.77,0002.68,0001.41
2024-02-22 01:49:00,SystemResetWarning,0823.4,4.99,000.00,025.7,024.9,000.0,034.1,027.6,12.2,0000.0,0010.39,0002.66,0001.41
2024-02-22 01:50:00,SystemResetWarning,0823.4,4.99,000.00,025.7,024.9,000.0,034.1,027.6,12.0,0000.0,0010.92,0002.54,0001.40
2024-02-22 01:51:00,SystemResetWarning,0823.4,5.00,000.00,025.7,024.9,000.0,034.1,027.6,11.0,0000.0,0011.07,0002.48,0001.39
2024-02-22 01:52:00,SystemResetWarning,0823.5,5.01,000.00,025.7,024.9,000.0,034.1,027.6,12.0,0000.0,0011.15,0002.48,0001.38
2024-02-22 01:53:00,SystemResetWarning,0823.3,5.01,000.00,025.7,024.9,000.0,034.1,027.6,11.2,0000.0,0010.76,0002.43,0001.36
2024-02-22 01:54:00,SystemResetWarning,0823.3,5.01,000.00,025.7,025.0,000.0,034.1,027.6,10.9,0000.0,0010.48,0002.34,0001.35
2024-02-22 01:55:00,SystemResetWarning,0823.2,5.00,000.00,025.7,025.0,000.0,034.1,027.6,10.3,0000.0,0010.87,0002.33,0001.35
2024-02-22 01:56:00,SystemResetWarning,0823.3,4.99,000.00,025.7,025.0,000.0,034.2,027.6,10.1,0000.0,0010.95,0002.31,0001.35
2024-02-22 01:57:00,SystemResetWarning,0823.3,5.00,000.00,025.7,025.0,000.0,034.2,027.6,09.9,0000.0,0010.49,0002.24,0001.34
2024-02-22 01:58:00,SystemResetWarning,0823.3,5.00,000.00,025.7,025.0,000.0,034.2,027.6,10.2,0000.0,0009.83,0002.24,0001.34
2024-02-22 01:59:00,SystemResetWarning,0823.3,5.00,000.00,025.7,025.0,000.0,034.2,027.6,10.0,0000.0,0009.44,0002.21,0001.32
